Regional Weather Roundup
Issued by NWS

Home | Current Version | Previous Version | Text Only | Print | Product List | Glossary On
Versions: 1 2 3 4 5 6 7 8 9 10 11 12 13 14 15 16 17 18 19 20 21 22 23 24 25 26 27 28 29 30 31 32 33 34 35 36 37 38 39 40 41 42 43 44 45 46 47 48 49 50
000
ASUS44 KJAN 161310
RWRMS

MISSISSIPPI HOURLY WEATHER ROUNDUP
NATIONAL WEATHER SERVICE JACKSON MS
800 AM CDT WED AUG 16 2017

NOTE: "FAIR: INDICATES FEW OR NO CLOUDS BELOW 12,000 FEET WITH NO
SIGNIFICANT WEATHER AND/OR OBSTRUCTIONS TO VISIBILITY.

MSZ001>002-007>008-010>013-018>021-025>028-034>036-161400-
NORTHWEST MISSISSIPPI

CITY           SKY/WX    TMP DP  RH WIND       PRES   REMARKS
BATESVILLE     CLOUDY    76  74  92 S7        30.04R
CLARKSDALE       N/A     79  79 100 S9        30.02R
CLEVELAND      CLOUDY    78  78 100 S8        30.02R
GREENWOOD      CLOUDY    76  75  97 S7        30.04R
GREENVILLE     CLOUDY    78  75  90 S8        30.02R
OLIVE BRANCH   CLOUDY   N/A N/A N/A S6        29.85F
OXFORD           N/A    N/A N/A N/A MISG        N/A
TUNICA           N/A     75  73  94 S7        30.02R
WINONA         CLOUDY    74  74 100 S3        30.05R
$$

MSZ003>006-009-014>017-022>024-029>033-037>039-161400-
NORTHEAST MISSISSIPPI

CITY           SKY/WX    TMP DP  RH WIND       PRES   REMARKS
COLUMBUS AFB   CLOUDY    76  76 100 CALM      30.06R
CORINTH        CLOUDY    77  73  88 CALM      30.04S
STARKVILLE     CLOUDY    73  72  94 SW6       30.08R
TUPELO         CLOUDY    76  72  87 SE3       30.06R
$$

MSZ040-058-161400-
CENTRAL MISSISSIPPI

CITY           SKY/WX    TMP DP  RH WIND       PRES   REMARKS
JACKSON INTL   CLOUDY    77  74  90 S5        30.06R
JACKSON HAWKNS CLOUDY    76  76 100 S5        30.06R
MADISON        FAIR      73  72  94 CALM      30.06R
MERIDIAN KEY   CLOUDY    77  75  93 SW5       30.08S
MERIDIAN NAS   PTSUNNY   78  75  90 SW6       30.08R
RAYMOND        FAIR      77  75  94 VRB3      30.05S
VICKSBURG VKS  SUNNY     77  75  94 CALM      30.03R
$$

MSZ059>079-161400-
SOUTH MISSISSIPPI

CITY           SKY/WX    TMP DP  RH WIND       PRES   REMARKS
COLUMBIA       FAIR      77 N/A N/A CALM      30.09R HAZE
HATTIESBURG    CLOUDY    76  76 100 CALM      30.08R
LAUREL         FAIR      75  75 100 CALM      30.07S
MCCOMB         CLOUDY    76  74  93 CALM      30.06S FOG
NATCHEZ        CLOUDY    77  75  93 S6        30.05R
PINE BELT      PTSUNNY   77  75  93 CALM      30.08S
$$

MSZ080>082-161400-
COASTAL MISSISSIPPI

CITY           SKY/WX    TMP DP  RH WIND       PRES   REMARKS
BAY ST LOUIS   SUNNY     79  77  94 CALM      30.06R
BILOXI         MOSUNNY   79  78  96 CALM      30.06R
PASCAGOULA     SUNNY     81  76  84 CALM      30.07R
GULFPORT       SUNNY     81  79  94 CALM      30.06R HX  90
$$

LAZ007>009-015>016-023>026-161400-
NORTHEAST LOUISIANA

CITY           SKY/WX    TMP DP  RH WIND       PRES   REMARKS
BASTROP        CLOUDY    77  76  98 S6        30.03R FOG
TALLULAH/VBURG MOSUNNY   77  75  93 S5        30.03S
VIDALIA        FAIR     N/A N/A N/A MISG      30.03R
$$



USA.gov is the U.S. government's official web portal to all federal, state and local government web resources and services.